Time,TemperatureF,DewpointF,PressureIn,WindDirection,WindDirectionDegrees,WindSpeedMPH,WindSpeedGustMPH,Humidity,HourlyPrecipIn,Conditions,Clouds,dailyrainin,SoftwareType,DateUTC
2013-05-17 00:00:00,53.3,40.4,29.53,SW,225,9.2,18.3,59,0.00,,,-99.99,HOBO +U30 +Weather +,2013-05-17 04:00:00,
2013-05-17 00:05:00,53.2,41.2,29.52,SW,223,9.2,13.2,61,0.00,,,-99.99,HOBO +U30 +Weather +,2013-05-17 04:05:00,
2013-05-17 00:10:00,53.1,41.7,29.52,SW,219,7.4,12.5,63,0.00,,,-99.99,HOBO +U30 +Weather +,2013-05-17 04:10:00,
2013-05-17 00:15:00,52.8,41.9,29.52,SW,219,7.2,13.6,63,0.00,,,-99.99,HOBO +U30 +Weather +,2013-05-17 04:15:00,
2013-05-17 00:20:00,52.8,42.0,29.52,SW,219,6.3,11.6,64,0.00,,,-99.99,HOBO +U30 +Weather +,2013-05-17 04:20:00,
2013-05-17 00:25:00,52.4,41.5,29.52,SW,215,6.7,10.1,63,0.00,,,-99.99,HOBO +U30 +Weather +,2013-05-17 04:25:00,
2013-05-17 00:30:00,52.4,41.9,29.52,SW,219,6.3,9.6,64,0.00,,,-99.99,HOBO +U30 +Weather +,2013-05-17 04:30:00,
2013-05-17 00:35:00,52.2,41.6,29.53,SW,222,5.8,10.3,64,0.00,,,-99.99,HOBO +U30 +Weather +,2013-05-17 04:35:00,
2013-05-17 00:40:00,51.8,41.1,29.53,SW,225,4.3,7.4,64,0.00,,,-99.99,HOBO +U30 +Weather +,2013-05-17 04:40:00,
2013-05-17 00:45:00,51.4,41.2,29.53,SW,223,4.3,7.8,64,0.00,,,-99.99,HOBO +U30 +Weather +,2013-05-17 04:45:00,
2013-05-17 00:50:00,51.2,41.3,29.53,SW,220,4.5,8.7,65,0.00,,,-99.99,HOBO +U30 +Weather +,2013-05-17 04:50:00,
2013-05-17 00:55:00,51.2,41.2,29.53,SW,222,5.4,8.7,65,0.00,,,-99.99,HOBO +U30 +Weather +,2013-05-17 04:55:00,
2013-05-17 01:00:00,51.0,41.4,29.53,SW,222,5.8,10.7,65,0.00,,,-99.99,HOBO +U30 +Weather +,2013-05-17 05:00:00,
2013-05-17 01:05:00,51.2,41.8,29.53,SW,223,6.3,10.1,66,0.00,,,-99.99,HOBO +U30 +Weather +,2013-05-17 05:05:00,
2013-05-17 01:10:00,51.3,41.8,29.53,SW,219,4.9,8.7,66,0.00,,,-99.99,HOBO +U30 +Weather +,2013-05-17 05:10:00,
2013-05-17 01:15:00,51.2,41.5,29.53,SW,219,6.3,9.2,65,0.00,,,-99.99,HOBO +U30 +Weather +,2013-05-17 05:15:00,
2013-05-17 01:20:00,51.1,41.8,29.53,SW,219,5.8,10.3,66,0.00,,,-99.99,HOBO +U30 +Weather +,2013-05-17 05:20:00,
2013-05-17 01:25:00,51.2,41.5,29.53,SW,220,7.2,13.0,66,0.00,,,-99.99,HOBO +U30 +Weather +,2013-05-17 05:25:00,
2013-05-17 01:30:00,51.0,40.9,29.53,SW,223,6.3,9.6,65,0.00,,,-99.99,HOBO +U30 +Weather +,2013-05-17 05:30:00,
2013-05-17 01:35:00,50.8,41.4,29.53,SW,226,5.8,11.6,66,0.00,,,-99.99,HOBO +U30 +Weather +,2013-05-17 05:35:00,
2013-05-17 01:40:00,50.7,41.6,29.53,SW,219,5.4,8.7,67,0.00,,,-99.99,HOBO +U30 +Weather +,2013-05-17 05:40:00,
2013-05-17 01:45:00,50.5,41.2,29.53,SW,223,6.3,9.2,67,0.00,,,-99.99,HOBO +U30 +Weather +,2013-05-17 05:45:00,
2013-05-17 01:50:00,50.4,41.9,29.53,SSW,212,4.9,7.4,68,0.00,,,-99.99,HOBO +U30 +Weather +,2013-05-17 05:50:00,
2013-05-17 01:55:00,50.4,41.6,29.53,SW,222,5.4,8.3,67,0.00,,,-99.99,HOBO +U30 +Weather +,2013-05-17 05:55:00,
2013-05-17 02:00:00,50.4,41.6,29.53,SW,222,5.4,7.8,67,0.00,,,-99.99,HOBO +U30 +Weather +,2013-05-17 06:00:00,
2013-05-17 02:05:00,50.5,41.2,29.53,SW,222,4.9,10.3,66,0.00,,,-99.99,HOBO +U30 +Weather +,2013-05-17 06:05:00,
2013-05-17 02:10:00,50.4,41.0,29.53,SW,223,4.3,7.4,66,0.00,,,-99.99,HOBO +U30 +Weather +,2013-05-17 06:10:00,
2013-05-17 02:15:00,50.2,41.1,29.53,SW,223,3.8,6.7,67,0.00,,,-99.99,HOBO +U30 +Weather +,2013-05-17 06:15:00,
2013-05-17 02:20:00,50.1,41.2,29.53,SW,218,4.5,8.7,66,0.00,,,-99.99,HOBO +U30 +Weather +,2013-05-17 06:20:00,
2013-05-17 02:25:00,50.0,41.5,29.53,SW,219,4.3,6.3,67,0.00,,,-99.99,HOBO +U30 +Weather +,2013-05-17 06:25:00,
2013-05-17 02:30:00,50.0,41.6,29.53,SW,216,3.4,6.3,68,0.00,,,-99.99,HOBO +U30 +Weather +,2013-05-17 06:30:00,
2013-05-17 02:35:00,50.1,41.8,29.53,SW,223,4.3,7.4,68,0.00,,,-99.99,HOBO +U30 +Weather +,2013-05-17 06:35:00,
2013-05-17 02:40:00,49.8,41.2,29.53,SW,219,3.4,6.3,67,0.00,,,-99.99,HOBO +U30 +Weather +,2013-05-17 06:40:00,
2013-05-17 02:45:00,49.6,41.1,29.53,SW,216,2.5,7.2,67,0.00,,,-99.99,HOBO +U30 +Weather +,2013-05-17 06:45:00,
2013-05-17 02:50:00,49.5,41.2,29.53,SSW,194,2.9,4.9,69,0.00,,,-99.99,HOBO +U30 +Weather +,2013-05-17 06:50:00,
2013-05-17 02:55:00,48.8,40.6,29.54,SE,135,2.9,6.7,70,0.00,,,-99.99,HOBO +U30 +Weather +,2013-05-17 06:55:00,
2013-05-17 03:00:00,48.4,40.7,29.54,ESE,119,2.5,4.5,72,0.00,,,-99.99,HOBO +U30 +Weather +,2013-05-17 07:00:00,
2013-05-17 03:05:00,47.8,41.3,29.54,SE,143,2.0,4.3,74,0.00,,,-99.99,HOBO +U30 +Weather +,2013-05-17 07:05:00,
2013-05-17 03:10:00,47.6,42.0,29.54,SSE,167,2.5,5.8,73,0.00,,,-99.99,HOBO +U30 +Weather +,2013-05-17 07:10:00,
2013-05-17 03:15:00,47.8,41.6,29.54,SSW,192,2.5,4.5,72,0.00,,,-99.99,HOBO +U30 +Weather +,2013-05-17 07:15:00,
2013-05-17 03:20:00,48.0,42.3,29.54,SSW,209,3.8,6.7,73,0.00,,,-99.99,HOBO +U30 +Weather +,2013-05-17 07:20:00,
2013-05-17 03:25:00,48.5,42.6,29.54,SW,215,3.8,7.2,74,0.00,,,-99.99,HOBO +U30 +Weather +,2013-05-17 07:25:00,
2013-05-17 03:30:00,48.5,42.4,29.54,SW,218,4.3,6.7,73,0.00,,,-99.99,HOBO +U30 +Weather +,2013-05-17 07:30:00,
2013-05-17 03:35:00,48.3,42.0,29.54,SW,223,2.9,4.9,72,0.00,,,-99.99,HOBO +U30 +Weather +,2013-05-17 07:35:00,
2013-05-17 03:40:00,48.5,41.4,29.54,SW,230,4.5,7.8,70,0.00,,,-99.99,HOBO +U30 +Weather +,2013-05-17 07:40:00,
2013-05-17 03:45:00,48.8,41.6,29.54,SW,225,4.9,7.8,71,0.00,,,-99.99,HOBO +U30 +Weather +,2013-05-17 07:45:00,
2013-05-17 03:50:00,48.8,41.6,29.54,SW,222,5.4,7.8,71,0.00,,,-99.99,HOBO +U30 +Weather +,2013-05-17 07:50:00,
2013-05-17 03:55:00,48.9,41.6,29.55,SW,220,5.4,8.7,72,0.00,,,-99.99,HOBO +U30 +Weather +,2013-05-17 07:55:00,
2013-05-17 04:00:00,48.8,41.9,29.55,SW,225,4.5,7.8,73,0.00,,,-99.99,HOBO +U30 +Weather +,2013-05-17 08:00:00,
2013-05-17 04:05:00,49.1,41.8,29.55,SW,227,4.5,7.4,73,0.00,,,-99.99,HOBO +U30 +Weather +,2013-05-17 08:05:00,
2013-05-17 04:10:00,48.9,42.3,29.56,SW,222,4.3,7.2,73,0.00,,,-99.99,HOBO +U30 +Weather +,2013-05-17 08:10:00,
2013-05-17 04:15:00,48.8,42.3,29.56,SW,225,4.3,8.3,73,0.00,,,-99.99,HOBO +U30 +Weather +,2013-05-17 08:15:00,
2013-05-17 04:20:00,48.9,42.5,29.56,SW,225,5.4,10.3,73,0.00,,,-99.99,HOBO +U30 +Weather +,2013-05-17 08:20:00,
2013-05-17 04:25:00,49.1,42.6,29.56,SW,226,4.5,7.2,72,0.00,,,-99.99,HOBO +U30 +Weather +,2013-05-17 08:25:00,
2013-05-17 04:30:00,49.2,42.0,29.56,SSW,208,2.9,6.7,70,0.00,,,-99.99,HOBO +U30 +Weather +,2013-05-17 08:30:00,
2013-05-17 04:35:00,48.9,41.8,29.57,SW,219,2.5,4.5,70,0.00,,,-99.99,HOBO +U30 +Weather +,2013-05-17 08:35:00,
2013-05-17 04:40:00,48.8,41.7,29.57,SSW,206,2.5,4.9,70,0.00,,,-99.99,HOBO +U30 +Weather +,2013-05-17 08:40:00,
2013-05-17 04:45:00,48.6,41.4,29.57,SSE,167,2.0,4.5,71,0.00,,,-99.99,HOBO +U30 +Weather +,2013-05-17 08:45:00,
2013-05-17 04:50:00,48.1,41.7,29.57,SSE,168,1.6,2.9,73,0.00,,,-99.99,HOBO +U30 +Weather +,2013-05-17 08:50:00,
2013-05-17 04:55:00,48.0,42.0,29.57,South,175,2.0,4.9,73,0.00,,,-99.99,HOBO +U30 +Weather +,2013-05-17 08:55:00,
2013-05-17 05:00:00,48.1,42.0,29.58,SSE,168,1.6,3.8,74,0.00,,,-99.99,HOBO +U30 +Weather +,2013-05-17 09:00:00,
2013-05-17 05:05:00,48.2,42.1,29.58,SSE,168,1.3,2.9,76,0.00,,,-99.99,HOBO +U30 +Weather +,2013-05-17 09:05:00,
2013-05-17 05:10:00,48.3,42.3,29.58,South,170,0.9,2.9,76,0.00,,,-99.99,HOBO +U30 +Weather +,2013-05-17 09:10:00,
2013-05-17 05:15:00,48.4,42.7,29.59,South,180,0.4,2.5,77,0.00,,,-99.99,HOBO +U30 +Weather +,2013-05-17 09:15:00,
2013-05-17 05:20:00,48.6,43.1,29.59,SW,226,1.3,3.4,77,0.00,,,-99.99,HOBO +U30 +Weather +,2013-05-17 09:20:00,
2013-05-17 05:25:00,48.8,43.2,29.59,SW,218,2.0,5.4,76,0.00,,,-99.99,HOBO +U30 +Weather +,2013-05-17 09:25:00,
2013-05-17 05:30:00,49.4,43.1,29.60,SW,216,2.9,5.8,75,0.00,,,-99.99,HOBO +U30 +Weather +,2013-05-17 09:30:00,
2013-05-17 05:35:00,49.8,42.9,29.60,SW,219,2.9,6.3,74,0.00,,,-99.99,HOBO +U30 +Weather +,2013-05-17 09:35:00,
2013-05-17 05:40:00,50.1,42.9,29.60,SW,220,2.9,4.5,74,0.00,,,-99.99,HOBO +U30 +Weather +,2013-05-17 09:40:00,
2013-05-17 05:45:00,50.2,43.0,29.60,SW,222,3.8,6.3,74,0.00,,,-99.99,HOBO +U30 +Weather +,2013-05-17 09:45:00,
2013-05-17 05:50:00,50.6,43.0,29.60,SW,222,3.8,7.4,74,0.00,,,-99.99,HOBO +U30 +Weather +,2013-05-17 09:50:00,
2013-05-17 05:55:00,50.8,43.3,29.60,SW,219,3.8,6.3,74,0.00,,,-99.99,HOBO +U30 +Weather +,2013-05-17 09:55:00,
2013-05-17 06:00:00,51.1,42.8,29.60,SW,229,4.3,7.4,73,0.00,,,-99.99,HOBO +U30 +Weather +,2013-05-17 10:00:00,
2013-05-17 06:05:00,51.2,42.8,29.61,SW,229,4.5,7.8,72,0.00,,,-99.99,HOBO +U30 +Weather +,2013-05-17 10:05:00,
2013-05-17 06:10:00,51.3,43.0,29.61,SW,229,3.8,6.7,73,0.00,,,-99.99,HOBO +U30 +Weather +,2013-05-17 10:10:00,
2013-05-17 06:15:00,51.5,43.2,29.61,SW,236,4.3,7.4,73,0.00,,,-99.99,HOBO +U30 +Weather +,2013-05-17 10:15:00,
2013-05-17 06:20:00,51.7,43.3,29.61,SW,220,4.3,7.4,73,0.00,,,-99.99,HOBO +U30 +Weather +,2013-05-17 10:20:00,
2013-05-17 06:25:00,51.9,43.3,29.61,SW,226,3.4,5.8,73,0.00,,,-99.99,HOBO +U30 +Weather +,2013-05-17 10:25:00,
2013-05-17 06:30:00,51.9,43.2,29.62,SW,225,2.9,5.4,73,0.00,,,-99.99,HOBO +U30 +Weather +,2013-05-17 10:30:00,
2013-05-17 06:35:00,51.9,43.1,29.62,SW,232,2.9,6.3,72,0.00,,,-99.99,HOBO +U30 +Weather +,2013-05-17 10:35:00,
2013-05-17 06:40:00,51.8,43.0,29.63,West,267,2.9,9.6,73,0.00,,,-99.99,HOBO +U30 +Weather +,2013-05-17 10:40:00,
2013-05-17 06:45:00,51.1,43.0,29.64,NW,305,3.8,8.7,75,0.00,,,-99.99,HOBO +U30 +Weather +,2013-05-17 10:45:00,
2013-05-17 06:50:00,50.7,43.4,29.64,NW,321,3.4,8.7,77,0.00,,,-99.99,HOBO +U30 +Weather +,2013-05-17 10:50:00,
2013-05-17 06:55:00,50.2,43.7,29.64,NW,316,4.3,10.1,80,0.00,,,-99.99,HOBO +U30 +Weather +,2013-05-17 10:55:00,
2013-05-17 07:00:00,49.9,44.4,29.64,WNW,298,2.9,7.4,83,0.00,,,-99.99,HOBO +U30 +Weather +,2013-05-17 11:00:00,
2013-05-17 07:05:00,49.8,44.4,29.64,WNW,303,2.5,7.4,84,0.00,,,-99.99,HOBO +U30 +Weather +,2013-05-17 11:05:00,
2013-05-17 07:10:00,49.7,44.3,29.64,West,279,3.4,7.2,84,0.00,,,-99.99,HOBO +U30 +Weather +,2013-05-17 11:10:00,
2013-05-17 07:15:00,49.8,44.2,29.65,WSW,251,4.3,9.2,85,0.00,,,-99.99,HOBO +U30 +Weather +,2013-05-17 11:15:00,
2013-05-17 07:20:00,49.6,44.4,29.65,WSW,253,3.4,7.8,85,0.00,,,-99.99,HOBO +U30 +Weather +,2013-05-17 11:20:00,
2013-05-17 07:25:00,49.5,44.1,29.65,West,267,4.9,10.3,84,0.00,,,-99.99,HOBO +U30 +Weather +,2013-05-17 11:25:00,
2013-05-17 07:30:00,49.8,44.2,29.66,West,265,4.3,11.2,84,0.00,,,-99.99,HOBO +U30 +Weather +,2013-05-17 11:30:00,
2013-05-17 07:35:00,50.3,44.2,29.66,West,268,3.4,6.7,83,0.00,,,-99.99,HOBO +U30 +Weather +,2013-05-17 11:35:00,
2013-05-17 07:40:00,50.5,43.9,29.67,WSW,253,3.8,11.2,82,0.00,,,-99.99,HOBO +U30 +Weather +,2013-05-17 11:40:00,
2013-05-17 07:45:00,50.5,43.6,29.67,West,270,4.5,11.2,81,0.00,,,-99.99,HOBO +U30 +Weather +,2013-05-17 11:45:00,
2013-05-17 07:50:00,50.4,43.6,29.67,WNW,282,2.9,7.2,81,0.00,,,-99.99,HOBO +U30 +Weather +,2013-05-17 11:50:00,
2013-05-17 07:55:00,50.5,43.5,29.68,West,271,3.4,7.2,81,0.00,,,-99.99,HOBO +U30 +Weather +,2013-05-17 11:55:00,
2013-05-17 08:00:00,51.0,43.8,29.68,WSW,243,2.5,6.3,80,0.00,,,-99.99,HOBO +U30 +Weather +,2013-05-17 12:00:00,
2013-05-17 08:05:00,51.1,43.0,29.68,West,278,4.5,7.4,79,0.00,,,-99.99,HOBO +U30 +Weather +,2013-05-17 12:05:00,
2013-05-17 08:10:00,51.0,43.4,29.68,WNW,284,2.5,7.4,79,0.00,,,-99.99,HOBO +U30 +Weather +,2013-05-17 12:10:00,
2013-05-17 08:15:00,52.4,44.3,29.68,WNW,302,1.6,2.9,78,0.00,,,-99.99,HOBO +U30 +Weather +,2013-05-17 12:15:00,
2013-05-17 08:20:00,54.1,44.6,29.68,West,263,1.6,3.8,77,0.00,,,-99.99,HOBO +U30 +Weather +,2013-05-17 12:20:00,
2013-05-17 08:25:00,54.6,43.2,29.69,WSW,240,6.7,17.4,75,0.00,,,-99.99,HOBO +U30 +Weather +,2013-05-17 12:25:00,
2013-05-17 08:30:00,54.2,43.2,29.69,WSW,246,4.9,10.7,73,0.00,,,-99.99,HOBO +U30 +Weather +,2013-05-17 12:30:00,
2013-05-17 08:35:00,55.3,43.3,29.69,WNW,285,4.3,10.3,72,0.00,,,-99.99,HOBO +U30 +Weather +,2013-05-17 12:35:00,
2013-05-17 08:40:00,61.2,43.7,29.69,West,281,4.9,11.6,69,0.00,,,-99.99,HOBO +U30 +Weather +,2013-05-17 12:40:00,
2013-05-17 08:45:00,64.5,44.0,29.69,West,261,4.3,7.8,66,0.00,,,-99.99,HOBO +U30 +Weather +,2013-05-17 12:45:00,
2013-05-17 08:50:00,66.7,42.7,29.69,WSW,246,4.3,8.7,63,0.00,,,-99.99,HOBO +U30 +Weather +,2013-05-17 12:50:00,
2013-05-17 08:55:00,68.9,42.5,29.69,SW,232,5.8,12.1,62,0.00,,,-99.99,HOBO +U30 +Weather +,2013-05-17 12:55:00,
2013-05-17 09:00:00,67.7,41.5,29.69,WSW,244,6.3,12.1,60,0.00,,,-99.99,HOBO +U30 +Weather +,2013-05-17 13:00:00,
2013-05-17 09:05:00,68.2,41.2,29.69,WNW,284,5.4,10.1,57,0.00,,,-99.99,HOBO +U30 +Weather +,2013-05-17 13:05:00,
2013-05-17 09:10:00,67.2,39.7,29.69,West,267,7.2,13.0,56,0.00,,,-99.99,HOBO +U30 +Weather +,2013-05-17 13:10:00,
2013-05-17 09:15:00,67.5,39.7,29.69,West,271,6.3,12.1,56,0.00,,,-99.99,HOBO +U30 +Weather +,2013-05-17 13:15:00,
2013-05-17 09:20:00,66.2,40.3,29.69,West,271,4.5,9.2,55,0.00,,,-99.99,HOBO +U30 +Weather +,2013-05-17 13:20:00,
2013-05-17 09:25:00,65.3,40.5,29.70,NW,312,5.8,12.5,55,0.00,,,-99.99,HOBO +U30 +Weather +,2013-05-17 13:25:00,
2013-05-17 09:30:00,65.4,40.7,29.70,NW,324,4.5,10.7,56,0.00,,,-99.99,HOBO +U30 +Weather +,2013-05-17 13:30:00,
2013-05-17 09:35:00,65.9,41.0,29.71,WNW,284,6.3,11.2,55,0.00,,,-99.99,HOBO +U30 +Weather +,2013-05-17 13:35:00,
2013-05-17 09:40:00,67.3,39.6,29.70,West,263,7.4,15.9,54,0.00,,,-99.99,HOBO +U30 +Weather +,2013-05-17 13:40:00,
2013-05-17 09:45:00,63.5,39.9,29.71,West,267,5.8,14.1,55,0.00,,,-99.99,HOBO +U30 +Weather +,2013-05-17 13:45:00,
2013-05-17 09:50:00,64.2,39.6,29.72,WSW,254,8.3,19.0,56,0.00,,,-99.99,HOBO +U30 +Weather +,2013-05-17 13:50:00,
2013-05-17 09:55:00,66.6,39.0,29.72,WSW,246,7.4,12.5,56,0.00,,,-99.99,HOBO +U30 +Weather +,2013-05-17 13:55:00,
2013-05-17 10:00:00,65.6,39.5,29.72,West,267,5.8,11.6,55,0.00,,,-99.99,HOBO +U30 +Weather +,2013-05-17 14:00:00,
2013-05-17 10:05:00,62.7,38.8,29.72,WSW,257,7.8,17.9,55,0.00,,,-99.99,HOBO +U30 +Weather +,2013-05-17 14:05:00,
2013-05-17 10:10:00,65.1,38.5,29.72,WSW,250,8.3,16.6,54,0.00,,,-99.99,HOBO +U30 +Weather +,2013-05-17 14:10:00,
2013-05-17 10:15:00,65.1,37.7,29.73,WSW,256,9.6,17.9,53,0.00,,,-99.99,HOBO +U30 +Weather +,2013-05-17 14:15:00,
2013-05-17 10:20:00,63.6,38.2,29.73,West,277,7.4,17.0,53,0.00,,,-99.99,HOBO +U30 +Weather +,2013-05-17 14:20:00,
2013-05-17 10:25:00,64.0,38.6,29.73,West,281,7.2,18.6,53,0.00,,,-99.99,HOBO +U30 +Weather +,2013-05-17 14:25:00,
2013-05-17 10:30:00,63.4,37.6,29.74,West,274,5.4,11.2,53,0.00,,,-99.99,HOBO +U30 +Weather +,2013-05-17 14:30:00,
2013-05-17 10:35:00,59.5,38.6,29.74,West,278,4.9,12.1,55,0.00,,,-99.99,HOBO +U30 +Weather +,2013-05-17 14:35:00,
2013-05-17 10:40:00,61.3,38.1,29.74,NW,314,5.8,17.0,53,0.00,,,-99.99,HOBO +U30 +Weather +,2013-05-17 14:40:00,
2013-05-17 10:45:00,61.4,37.4,29.74,West,279,9.6,19.0,53,0.00,,,-99.99,HOBO +U30 +Weather +,2013-05-17 14:45:00,
2013-05-17 10:50:00,63.0,38.4,29.75,West,261,5.4,10.7,53,0.00,,,-99.99,HOBO +U30 +Weather +,2013-05-17 14:50:00,
2013-05-17 10:55:00,60.8,37.6,29.75,West,260,6.7,15.4,54,0.00,,,-99.99,HOBO +U30 +Weather +,2013-05-17 14:55:00,
2013-05-17 11:00:00,61.7,38.3,29.75,WSW,240,6.3,13.6,56,0.00,,,-99.99,HOBO +U30 +Weather +,2013-05-17 15:00:00,
2013-05-17 11:05:00,62.2,37.4,29.75,WSW,244,7.4,15.4,54,0.00,,,-99.99,HOBO +U30 +Weather +,2013-05-17 15:05:00,
2013-05-17 11:10:00,62.3,39.0,29.75,WSW,253,6.7,14.1,55,0.00,,,-99.99,HOBO +U30 +Weather +,2013-05-17 15:10:00,
2013-05-17 11:15:00,62.1,37.6,29.75,SW,234,11.2,19.0,55,0.00,,,-99.99,HOBO +U30 +Weather +,2013-05-17 15:15:00,
2013-05-17 11:20:00,60.8,38.1,29.75,SW,232,9.2,17.4,56,0.00,,,-99.99,HOBO +U30 +Weather +,2013-05-17 15:20:00,
2013-05-17 11:25:00,59.5,38.0,29.75,SW,233,12.1,18.3,55,0.00,,,-99.99,HOBO +U30 +Weather +,2013-05-17 15:25:00,
2013-05-17 11:30:00,62.2,37.8,29.75,WSW,248,7.8,16.1,53,0.00,,,-99.99,HOBO +U30 +Weather +,2013-05-17 15:30:00,
2013-05-17 11:35:00,61.1,36.7,29.75,WSW,251,10.7,18.3,52,0.00,,,-99.99,HOBO +U30 +Weather +,2013-05-17 15:35:00,
2013-05-17 11:40:00,62.6,37.3,29.75,West,268,5.8,12.5,50,0.00,,,-99.99,HOBO +U30 +Weather +,2013-05-17 15:40:00,
2013-05-17 11:45:00,61.6,37.6,29.75,West,279,7.4,17.0,51,0.00,,,-99.99,HOBO +U30 +Weather +,2013-05-17 15:45:00,
2013-05-17 11:50:00,60.4,38.9,29.75,WNW,300,4.9,13.2,50,0.00,,,-99.99,HOBO +U30 +Weather +,2013-05-17 15:50:00,
2013-05-17 11:55:00,62.2,38.8,29.75,West,263,4.5,15.4,50,0.00,,,-99.99,HOBO +U30 +Weather +,2013-05-17 15:55:00,
2013-05-17 12:00:00,62.0,37.3,29.75,WSW,257,7.8,16.1,49,0.00,,,-99.99,HOBO +U30 +Weather +,2013-05-17 16:00:00,
2013-05-17 12:05:00,62.6,38.1,29.75,NW,317,3.8,10.1,49,0.00,,,-99.99,HOBO +U30 +Weather +,2013-05-17 16:05:00,
2013-05-17 12:10:00,63.6,38.0,29.75,SW,236,4.9,15.9,48,0.00,,,-99.99,HOBO +U30 +Weather +,2013-05-17 16:10:00,
2013-05-17 12:15:00,61.8,35.6,29.75,WSW,248,11.6,22.4,47,0.00,,,-99.99,HOBO +U30 +Weather +,2013-05-17 16:15:00,
2013-05-17 12:20:00,61.6,37.6,29.75,WSW,237,8.7,18.6,49,0.00,,,-99.99,HOBO +U30 +Weather +,2013-05-17 16:20:00,
2013-05-17 12:25:00,62.7,37.7,29.75,SW,236,6.3,15.9,48,0.00,,,-99.99,HOBO +U30 +Weather +,2013-05-17 16:25:00,
2013-05-17 12:30:00,61.9,37.6,29.75,NW,309,4.9,15.4,47,0.00,,,-99.99,HOBO +U30 +Weather +,2013-05-17 16:30:00,
2013-05-17 12:35:00,60.8,36.8,29.75,West,268,8.3,21.3,47,0.00,,,-99.99,HOBO +U30 +Weather +,2013-05-17 16:35:00,
2013-05-17 12:40:00,61.5,37.1,29.75,West,264,6.3,15.0,46,0.00,,,-99.99,HOBO +U30 +Weather +,2013-05-17 16:40:00,
2013-05-17 12:45:00,62.5,37.3,29.75,WSW,248,7.8,15.4,45,0.00,,,-99.99,HOBO +U30 +Weather +,2013-05-17 16:45:00,
2013-05-17 12:50:00,61.5,36.7,29.75,West,265,8.3,20.8,45,0.00,,,-99.99,HOBO +U30 +Weather +,2013-05-17 16:50:00,
2013-05-17 12:55:00,62.8,37.9,29.75,WSW,244,5.4,13.2,45,0.00,,,-99.99,HOBO +U30 +Weather +,2013-05-17 16:55:00,
2013-05-17 13:00:00,63.0,36.8,29.75,West,267,7.2,15.4,46,0.00,,,-99.99,HOBO +U30 +Weather +,2013-05-17 17:00:00,
2013-05-17 13:05:00,62.5,35.9,29.75,WSW,254,8.3,13.6,44,0.00,,,-99.99,HOBO +U30 +Weather +,2013-05-17 17:05:00,
2013-05-17 13:10:00,61.7,38.2,29.75,WNW,292,4.5,10.1,45,0.00,,,-99.99,HOBO +U30 +Weather +,2013-05-17 17:10:00,
2013-05-17 13:15:00,62.8,35.6,29.75,WSW,239,5.8,13.2,44,0.00,,,-99.99,HOBO +U30 +Weather +,2013-05-17 17:15:00,
2013-05-17 13:20:00,60.2,36.9,29.75,West,268,6.7,15.9,46,0.00,,,-99.99,HOBO +U30 +Weather +,2013-05-17 17:20:00,
2013-05-17 13:25:00,60.5,37.6,29.75,West,272,6.3,12.1,45,0.00,,,-99.99,HOBO +U30 +Weather +,2013-05-17 17:25:00,
2013-05-17 13:30:00,60.8,37.5,29.75,WSW,258,6.3,12.1,44,0.00,,,-99.99,HOBO +U30 +Weather +,2013-05-17 17:30:00,
2013-05-17 13:35:00,60.6,36.5,29.75,WSW,258,7.4,15.9,44,0.00,,,-99.99,HOBO +U30 +Weather +,2013-05-17 17:35:00,
2013-05-17 13:40:00,61.0,37.1,29.75,WSW,241,8.3,14.1,45,0.00,,,-99.99,HOBO +U30 +Weather +,2013-05-17 17:40:00,
2013-05-17 13:45:00,61.1,37.9,29.75,WSW,241,6.7,14.5,45,0.00,,,-99.99,HOBO +U30 +Weather +,2013-05-17 17:45:00,
2013-05-17 13:50:00,61.1,37.2,29.75,West,260,8.3,15.9,43,0.00,,,-99.99,HOBO +U30 +Weather +,2013-05-17 17:50:00,
2013-05-17 13:55:00,61.1,36.8,29.75,WSW,239,9.6,17.0,43,0.00,,,-99.99,HOBO +U30 +Weather +,2013-05-17 17:55:00,
2013-05-17 14:00:00,61.6,37.8,29.76,WSW,241,7.2,13.6,43,0.00,,,-99.99,HOBO +U30 +Weather +,2013-05-17 18:00:00,
2013-05-17 14:05:00,61.2,37.5,29.76,West,264,5.8,14.5,43,0.00,,,-99.99,HOBO +U30 +Weather +,2013-05-17 18:05:00,
2013-05-17 14:10:00,61.8,38.9,29.76,SW,223,4.9,11.2,43,0.00,,,-99.99,HOBO +U30 +Weather +,2013-05-17 18:10:00,
2013-05-17 14:15:00,62.5,36.0,29.76,WSW,250,8.7,15.4,41,0.00,,,-99.99,HOBO +U30 +Weather +,2013-05-17 18:15:00,
2013-05-17 14:20:00,60.6,36.0,29.77,West,275,6.7,15.0,42,0.00,,,-99.99,HOBO +U30 +Weather +,2013-05-17 18:20:00,
2013-05-17 14:25:00,61.6,36.9,29.76,SW,234,9.2,15.9,43,0.00,,,-99.99,HOBO +U30 +Weather +,2013-05-17 18:25:00,
2013-05-17 14:30:00,61.6,36.6,29.77,WSW,258,7.4,15.4,42,0.00,,,-99.99,HOBO +U30 +Weather +,2013-05-17 18:30:00,
2013-05-17 14:35:00,62.2,37.9,29.76,WSW,250,7.4,15.4,43,0.00,,,-99.99,HOBO +U30 +Weather +,2013-05-17 18:35:00,
2013-05-17 14:40:00,61.8,36.0,29.77,West,277,8.3,14.5,40,0.00,,,-99.99,HOBO +U30 +Weather +,2013-05-17 18:40:00,
2013-05-17 14:45:00,62.4,38.0,29.77,WSW,253,6.7,13.6,42,0.00,,,-99.99,HOBO +U30 +Weather +,2013-05-17 18:45:00,
2013-05-17 14:50:00,63.2,37.5,29.77,West,281,4.5,10.7,39,0.00,,,-99.99,HOBO +U30 +Weather +,2013-05-17 18:50:00,
2013-05-17 14:55:00,62.4,35.0,29.77,WSW,248,6.3,11.2,39,0.00,,,-99.99,HOBO +U30 +Weather +,2013-05-17 18:55:00,
2013-05-17 15:00:00,61.4,35.0,29.76,West,264,6.7,15.0,39,0.00,,,-99.99,HOBO +U30 +Weather +,2013-05-17 19:00:00,
2013-05-17 15:05:00,62.0,36.7,29.77,WSW,246,4.9,10.1,40,0.00,,,-99.99,HOBO +U30 +Weather +,2013-05-17 19:05:00,
2013-05-17 15:10:00,62.1,35.6,29.77,WSW,254,5.8,13.0,40,0.00,,,-99.99,HOBO +U30 +Weather +,2013-05-17 19:10:00,
2013-05-17 15:15:00,63.1,35.2,29.77,WSW,241,5.4,11.6,38,0.00,,,-99.99,HOBO +U30 +Weather +,2013-05-17 19:15:00,
2013-05-17 15:20:00,63.5,35.1,29.77,WSW,246,6.7,12.1,39,0.00,,,-99.99,HOBO +U30 +Weather +,2013-05-17 19:20:00,
2013-05-17 15:25:00,62.8,35.5,29.77,WSW,257,6.3,16.1,39,0.00,,,-99.99,HOBO +U30 +Weather +,2013-05-17 19:25:00,
2013-05-17 15:30:00,62.5,36.0,29.78,WSW,250,7.2,15.0,41,0.00,,,-99.99,HOBO +U30 +Weather +,2013-05-17 19:30:00,
2013-05-17 15:35:00,62.1,35.8,29.78,WSW,244,7.8,16.6,40,0.00,,,-99.99,HOBO +U30 +Weather +,2013-05-17 19:35:00,
2013-05-17 15:40:00,62.1,35.9,29.78,WSW,253,4.5,10.3,39,0.00,,,-99.99,HOBO +U30 +Weather +,2013-05-17 19:40:00,
2013-05-17 15:45:00,62.5,36.8,29.78,WSW,239,7.2,14.5,41,0.00,,,-99.99,HOBO +U30 +Weather +,2013-05-17 19:45:00,
2013-05-17 15:50:00,62.6,36.5,29.78,WSW,250,6.3,15.0,41,0.00,,,-99.99,HOBO +U30 +Weather +,2013-05-17 19:50:00,
2013-05-17 15:55:00,62.7,37.6,29.78,SW,236,7.4,13.2,43,0.00,,,-99.99,HOBO +U30 +Weather +,2013-05-17 19:55:00,
2013-05-17 16:00:00,62.2,35.8,29.78,SW,234,8.3,14.5,40,0.00,,,-99.99,HOBO +U30 +Weather +,2013-05-17 20:00:00,
2013-05-17 16:05:00,62.0,36.1,29.78,WSW,251,8.7,17.0,40,0.00,,,-99.99,HOBO +U30 +Weather +,2013-05-17 20:05:00,
2013-05-17 16:10:00,62.1,37.0,29.78,SW,226,10.7,18.3,41,0.00,,,-99.99,HOBO +U30 +Weather +,2013-05-17 20:10:00,
2013-05-17 16:15:00,62.3,37.1,29.78,SW,230,10.1,15.9,41,0.00,,,-99.99,HOBO +U30 +Weather +,2013-05-17 20:15:00,
2013-05-17 16:20:00,62.2,37.4,29.78,SW,220,7.2,13.0,42,0.00,,,-99.99,HOBO +U30 +Weather +,2013-05-17 20:20:00,
2013-05-17 16:25:00,61.4,37.5,29.79,SW,233,7.8,14.1,43,0.00,,,-99.99,HOBO +U30 +Weather +,2013-05-17 20:25:00,
2013-05-17 16:30:00,61.1,36.4,29.79,WSW,240,6.7,12.5,41,0.00,,,-99.99,HOBO +U30 +Weather +,2013-05-17 20:30:00,
2013-05-17 16:35:00,61.2,36.3,29.79,WSW,243,7.2,15.4,41,0.00,,,-99.99,HOBO +U30 +Weather +,2013-05-17 20:35:00,
2013-05-17 16:40:00,61.1,35.9,29.79,WSW,247,7.4,13.6,40,0.00,,,-99.99,HOBO +U30 +Weather +,2013-05-17 20:40:00,
2013-05-17 16:45:00,61.1,37.1,29.79,WSW,247,7.4,14.1,42,0.00,,,-99.99,HOBO +U30 +Weather +,2013-05-17 20:45:00,
2013-05-17 16:50:00,62.5,37.0,29.79,SW,232,7.4,13.0,41,0.00,,,-99.99,HOBO +U30 +Weather +,2013-05-17 20:50:00,
2013-05-17 16:55:00,62.6,37.1,29.80,WSW,239,7.2,10.7,40,0.00,,,-99.99,HOBO +U30 +Weather +,2013-05-17 20:55:00,
2013-05-17 17:00:00,62.2,36.4,29.79,SW,233,8.3,14.1,40,0.00,,,-99.99,HOBO +U30 +Weather +,2013-05-17 21:00:00,
2013-05-17 17:05:00,62.0,36.2,29.79,SW,233,8.7,16.1,40,0.00,,,-99.99,HOBO +U30 +Weather +,2013-05-17 21:05:00,
2013-05-17 17:10:00,61.9,37.2,29.80,WSW,239,7.4,16.6,41,0.00,,,-99.99,HOBO +U30 +Weather +,2013-05-17 21:10:00,
2013-05-17 17:15:00,62.2,36.8,29.80,WSW,253,5.8,13.2,40,0.00,,,-99.99,HOBO +U30 +Weather +,2013-05-17 21:15:00,
2013-05-17 17:20:00,62.4,36.5,29.80,WSW,237,7.8,16.1,39,0.00,,,-99.99,HOBO +U30 +Weather +,2013-05-17 21:20:00,
2013-05-17 17:25:00,61.7,37.1,29.80,WSW,240,7.8,15.9,41,0.00,,,-99.99,HOBO +U30 +Weather +,2013-05-17 21:25:00,
2013-05-17 17:30:00,61.0,37.4,29.80,West,275,5.4,16.1,42,0.00,,,-99.99,HOBO +U30 +Weather +,2013-05-17 21:30:00,
2013-05-17 17:35:00,61.0,36.1,29.80,WSW,254,5.8,11.2,40,0.00,,,-99.99,HOBO +U30 +Weather +,2013-05-17 21:35:00,
2013-05-17 17:40:00,60.8,36.1,29.80,WNW,289,2.5,6.3,40,0.00,,,-99.99,HOBO +U30 +Weather +,2013-05-17 21:40:00,
2013-05-17 17:45:00,60.1,36.0,29.80,West,260,3.4,7.8,41,0.00,,,-99.99,HOBO +U30 +Weather +,2013-05-17 21:45:00,
2013-05-17 17:50:00,60.1,36.6,29.81,WSW,243,2.5,7.8,41,0.00,,,-99.99,HOBO +U30 +Weather +,2013-05-17 21:50:00,
2013-05-17 17:55:00,60.1,36.7,29.81,West,270,2.0,4.5,42,0.00,,,-99.99,HOBO +U30 +Weather +,2013-05-17 21:55:00,
2013-05-17 18:00:00,59.8,37.0,29.81,WSW,254,2.9,5.4,43,0.00,,,-99.99,HOBO +U30 +Weather +,2013-05-17 22:00:00,
2013-05-17 18:05:00,59.4,37.6,29.81,SSW,212,1.6,4.5,45,0.00,,,-99.99,HOBO +U30 +Weather +,2013-05-17 22:05:00,
2013-05-17 18:10:00,59.2,37.5,29.81,NW,305,2.5,5.8,44,0.00,,,-99.99,HOBO +U30 +Weather +,2013-05-17 22:10:00,
2013-05-17 18:15:00,59.5,38.0,29.82,West,272,2.5,5.8,44,0.00,,,-99.99,HOBO +U30 +Weather +,2013-05-17 22:15:00,
2013-05-17 18:20:00,59.5,37.4,29.82,West,263,3.4,9.6,43,0.00,,,-99.99,HOBO +U30 +Weather +,2013-05-17 22:20:00,
2013-05-17 18:25:00,58.8,37.2,29.82,West,271,3.8,6.7,44,0.00,,,-99.99,HOBO +U30 +Weather +,2013-05-17 22:25:00,
2013-05-17 18:30:00,58.6,37.8,29.82,WSW,256,2.9,6.3,43,0.00,,,-99.99,HOBO +U30 +Weather +,2013-05-17 22:30:00,
2013-05-17 18:35:00,58.7,37.0,29.82,WSW,257,3.8,8.7,42,0.00,,,-99.99,HOBO +U30 +Weather +,2013-05-17 22:35:00,
2013-05-17 18:40:00,58.5,37.1,29.83,West,264,2.0,5.8,43,0.00,,,-99.99,HOBO +U30 +Weather +,2013-05-17 22:40:00,
2013-05-17 18:45:00,58.2,37.0,29.83,West,261,3.4,9.2,44,0.00,,,-99.99,HOBO +U30 +Weather +,2013-05-17 22:45:00,
2013-05-17 18:50:00,58.2,37.2,29.83,West,261,2.5,7.4,44,0.00,,,-99.99,HOBO +U30 +Weather +,2013-05-17 22:50:00,
2013-05-17 18:55:00,58.5,36.5,29.83,West,267,4.5,10.1,43,0.00,,,-99.99,HOBO +U30 +Weather +,2013-05-17 22:55:00,
2013-05-17 19:00:00,58.5,36.9,29.84,West,261,2.9,5.8,44,0.00,,,-99.99,HOBO +U30 +Weather +,2013-05-17 23:00:00,
2013-05-17 19:05:00,58.4,37.0,29.84,West,278,2.9,7.4,44,0.00,,,-99.99,HOBO +U30 +Weather +,2013-05-17 23:05:00,
2013-05-17 19:10:00,58.4,36.8,29.84,WNW,295,3.4,6.7,43,0.00,,,-99.99,HOBO +U30 +Weather +,2013-05-17 23:10:00,
2013-05-17 19:15:00,58.6,36.7,29.84,WNW,291,2.5,5.4,42,0.00,,,-99.99,HOBO +U30 +Weather +,2013-05-17 23:15:00,
2013-05-17 19:20:00,58.7,36.5,29.84,West,279,3.4,5.8,42,0.00,,,-99.99,HOBO +U30 +Weather +,2013-05-17 23:20:00,
2013-05-17 19:25:00,58.7,36.9,29.84,WSW,246,2.5,6.3,42,0.00,,,-99.99,HOBO +U30 +Weather +,2013-05-17 23:25:00,
2013-05-17 19:30:00,58.4,36.6,29.85,WNW,292,2.5,4.3,43,0.00,,,-99.99,HOBO +U30 +Weather +,2013-05-17 23:30:00,
2013-05-17 19:35:00,58.1,36.6,29.85,West,264,1.6,4.5,44,0.00,,,-99.99,HOBO +U30 +Weather +,2013-05-17 23:35:00,
2013-05-17 19:40:00,57.5,36.8,29.85,WSW,244,1.6,4.9,45,0.00,,,-99.99,HOBO +U30 +Weather +,2013-05-17 23:40:00,
2013-05-17 19:45:00,56.8,36.9,29.85,SW,236,1.6,4.9,45,0.00,,,-99.99,HOBO +U30 +Weather +,2013-05-17 23:45:00,
2013-05-17 19:50:00,56.2,36.7,29.85,West,268,2.5,5.8,45,0.00,,,-99.99,HOBO +U30 +Weather +,2013-05-17 23:50:00,
2013-05-17 19:55:00,55.7,36.5,29.86,West,268,1.3,3.4,46,0.00,,,-99.99,HOBO +U30 +Weather +,2013-05-17 23:55:00,
2013-05-17 20:00:00,55.0,37.1,29.86,WSW,248,0.9,2.0,48,0.00,,,-99.99,HOBO +U30 +Weather +,2013-05-18 00:00:00,
2013-05-17 20:05:00,54.5,37.3,29.87,West,281,1.3,3.4,50,0.00,,,-99.99,HOBO +U30 +Weather +,2013-05-18 00:05:00,
2013-05-17 20:10:00,54.2,37.4,29.87,West,272,1.3,4.9,50,0.00,,,-99.99,HOBO +U30 +Weather +,2013-05-18 00:10:00,
2013-05-17 20:15:00,53.7,38.0,29.87,West,271,1.3,3.8,51,0.00,,,-99.99,HOBO +U30 +Weather +,2013-05-18 00:15:00,
2013-05-17 20:20:00,53.7,36.9,29.87,WNW,282,1.6,4.3,48,0.00,,,-99.99,HOBO +U30 +Weather +,2013-05-18 00:20:00,
2013-05-17 20:25:00,53.6,36.7,29.87,West,271,1.6,4.3,48,0.00,,,-99.99,HOBO +U30 +Weather +,2013-05-18 00:25:00,
2013-05-17 20:30:00,53.3,36.5,29.87,WSW,243,1.3,2.5,48,0.00,,,-99.99,HOBO +U30 +Weather +,2013-05-18 00:30:00,
2013-05-17 20:35:00,52.9,38.5,29.88,WSW,244,1.6,4.9,53,0.00,,,-99.99,HOBO +U30 +Weather +,2013-05-18 00:35:00,
2013-05-17 20:40:00,52.5,40.7,29.88,WSW,237,1.6,2.9,60,0.00,,,-99.99,HOBO +U30 +Weather +,2013-05-18 00:40:00,
2013-05-17 20:45:00,52.0,42.5,29.88,SW,232,2.0,3.4,65,0.00,,,-99.99,HOBO +U30 +Weather +,2013-05-18 00:45:00,
2013-05-17 20:50:00,51.5,42.6,29.89,SW,230,0.0,0.9,67,0.00,,,-99.99,HOBO +U30 +Weather +,2013-05-18 00:50:00,
2013-05-17 20:55:00,51.1,42.9,29.89,SW,227,0.9,2.0,69,0.00,,,-99.99,HOBO +U30 +Weather +,2013-05-18 00:55:00,
2013-05-17 21:00:00,50.5,42.7,29.89,SW,227,0.0,2.0,69,0.00,,,-99.99,HOBO +U30 +Weather +,2013-05-18 01:00:00,
2013-05-17 21:05:00,50.0,42.5,29.89,SW,227,0.0,1.3,70,0.00,,,-99.99,HOBO +U30 +Weather +,2013-05-18 01:05:00,
2013-05-17 21:10:00,49.7,42.4,29.90,SW,227,0.4,1.6,70,0.00,,,-99.99,HOBO +U30 +Weather +,2013-05-18 01:10:00,
2013-05-17 21:15:00,49.5,41.9,29.90,SW,230,0.4,1.6,69,0.00,,,-99.99,HOBO +U30 +Weather +,2013-05-18 01:15:00,
2013-05-17 21:20:00,49.3,40.7,29.90,WSW,239,0.4,3.8,65,0.00,,,-99.99,HOBO +U30 +Weather +,2013-05-18 01:20:00,
2013-05-17 21:25:00,49.2,39.7,29.90,SW,234,0.0,0.0,64,0.00,,,-99.99,HOBO +U30 +Weather +,2013-05-18 01:25:00,
2013-05-17 21:30:00,48.7,40.3,29.90,SW,236,0.0,0.0,67,0.00,,,-99.99,HOBO +U30 +Weather +,2013-05-18 01:30:00,
2013-05-17 21:35:00,48.2,40.2,29.91,SW,236,0.0,0.0,68,0.00,,,-99.99,HOBO +U30 +Weather +,2013-05-18 01:35:00,
2013-05-17 21:40:00,48.1,40.8,29.90,SW,234,0.0,0.0,69,0.00,,,-99.99,HOBO +U30 +Weather +,2013-05-18 01:40:00,
2013-05-17 21:45:00,47.6,40.9,29.91,SW,234,0.0,0.0,70,0.00,,,-99.99,HOBO +U30 +Weather +,2013-05-18 01:45:00,
2013-05-17 21:50:00,47.6,41.8,29.91,SW,215,0.0,0.4,73,0.00,,,-99.99,HOBO +U30 +Weather +,2013-05-18 01:50:00,
2013-05-17 21:55:00,47.7,42.6,29.91,SW,227,0.4,4.3,77,0.00,,,-99.99,HOBO +U30 +Weather +,2013-05-18 01:55:00,
2013-05-17 22:00:00,47.6,42.6,29.91,SW,236,0.0,0.0,78,0.00,,,-99.99,HOBO +U30 +Weather +,2013-05-18 02:00:00,
2013-05-17 22:05:00,47.3,42.1,29.91,WSW,237,0.0,0.0,77,0.00,,,-99.99,HOBO +U30 +Weather +,2013-05-18 02:05:00,
2013-05-17 22:10:00,46.9,41.8,29.91,SW,236,0.0,0.0,77,0.00,,,-99.99,HOBO +U30 +Weather +,2013-05-18 02:10:00,
2013-05-17 22:15:00,46.6,41.8,29.91,SW,232,0.0,0.0,76,0.00,,,-99.99,HOBO +U30 +Weather +,2013-05-18 02:15:00,
2013-05-17 22:20:00,46.4,41.6,29.92,SW,232,0.0,0.0,76,0.00,,,-99.99,HOBO +U30 +Weather +,2013-05-18 02:20:00,
2013-05-17 22:25:00,46.4,42.0,29.92,WSW,237,0.0,0.0,77,0.00,,,-99.99,HOBO +U30 +Weather +,2013-05-18 02:25:00,
2013-05-17 22:30:00,46.5,42.2,29.92,SW,236,0.0,0.0,79,0.00,,,-99.99,HOBO +U30 +Weather +,2013-05-18 02:30:00,
2013-05-17 22:35:00,46.4,42.5,29.92,SW,233,0.0,0.0,80,0.00,,,-99.99,HOBO +U30 +Weather +,2013-05-18 02:35:00,
2013-05-17 22:40:00,46.2,42.6,29.91,SW,236,0.0,0.0,81,0.00,,,-99.99,HOBO +U30 +Weather +,2013-05-18 02:40:00,
2013-05-17 22:45:00,45.8,42.7,29.91,South,190,0.0,0.0,82,0.00,,,-99.99,HOBO +U30 +Weather +,2013-05-18 02:45:00,
2013-05-17 22:50:00,45.5,42.7,29.91,SSE,164,0.0,0.0,83,0.00,,,-99.99,HOBO +U30 +Weather +,2013-05-18 02:50:00,
2013-05-17 22:55:00,45.2,42.7,29.91,South,171,0.0,0.0,84,0.00,,,-99.99,HOBO +U30 +Weather +,2013-05-18 02:55:00,
2013-05-17 23:00:00,45.1,43.1,29.91,South,190,0.0,2.5,85,0.00,,,-99.99,HOBO +U30 +Weather +,2013-05-18 03:00:00,
2013-05-17 23:05:00,44.9,43.0,29.92,SSW,194,0.0,2.0,84,0.00,,,-99.99,HOBO +U30 +Weather +,2013-05-18 03:05:00,
2013-05-17 23:10:00,44.8,42.5,29.92,SSW,197,0.0,0.0,83,0.00,,,-99.99,HOBO +U30 +Weather +,2013-05-18 03:10:00,
2013-05-17 23:15:00,44.7,42.2,29.92,SSW,195,0.4,2.5,83,0.00,,,-99.99,HOBO +U30 +Weather +,2013-05-18 03:15:00,
2013-05-17 23:25:00,44.6,42.1,29.93,SSW,194,0.0,0.0,84,0.00,,,-99.99,HOBO +U30 +Weather +,2013-05-18 03:25:00,
2013-05-17 23:29:00,44.5,42.3,29.92,SSW,194,0.0,1.3,84,0.00,,,-99.99,HOBO +U30 +Weather +,2013-05-18 03:29:00,
2013-05-17 23:30:00,44.9,42.2,29.93,SSW,194,0.0,0.0,85,0.00,,,-99.99,HOBO +U30 +Weather +,2013-05-18 03:30:00,
2013-05-17 23:35:00,44.7,42.0,29.93,SSW,194,0.0,0.0,85,0.00,,,-99.99,HOBO +U30 +Weather +,2013-05-18 03:35:00,
2013-05-17 23:40:00,44.3,42.0,29.93,SSW,194,0.0,0.0,86,0.00,,,-99.99,HOBO +U30 +Weather +,2013-05-18 03:40:00,
2013-05-17 23:45:00,44.4,42.2,29.94,SSW,194,0.0,0.0,87,0.00,,,-99.99,HOBO +U30 +Weather +,2013-05-18 03:45:00,
2013-05-17 23:50:00,44.1,42.1,29.94,SSW,194,0.0,0.0,87,0.00,,,-99.99,HOBO +U30 +Weather +,2013-05-18 03:50:00,
2013-05-17 23:55:00,44.0,42.4,29.93,SSW,194,0.0,0.0,88,0.00,,,-99.99,HOBO +U30 +Weather +,2013-05-18 03:55:00,